Location: Newark
(45.2500°N, 7.5833°E)
Time: 04:39:13
(UTC+00:00)

Tiros 1 despin weight - Pass Details

Date: 01 February 2020
Orbit: 594 x 642 km, 48.2° (Epoch: 19 February)

Event Time Altitude Azimuth Distance (km) Brightness Sun altitude
Rises 13:15:04 0° 290° (WNW) 2,883 ? 24.2°
Reaches altitude 10° 13:17:23 10° 287° (WNW) 1,984 ? 24.0°
Maximum altitude 13:21:52 60° 208° (SSW) 716 ? 23.7°
Drops below altitude 10° 13:26:25 10° 129° (SE) 2,005 ? 23.3°
Sets 13:28:46 0° 125° (SE) 2,917 ? 23.2°
